Tracking 17887 objects as of 11-December-2016
HD Live streaming from Space Station
objects crossing your sky now

COSMOS 2418 (GLONASS)

Track COSMOS 2418 (GLONASS) now!
COSMOS 2418 (GLONASS) is classified as:


NORAD ID: 28916
Int'l Code: 2005-050B
Perigee: 19,102.0 km
Apogee: 19,171.7 km
Inclination: 65.4 °
Period: 675.7 minutes
Semi major axis: 25507 km
RCS: 3.9905 m2 (large)
Launch date: December 25, 2005
Source: Commonwealth of Independent States (former USSR) (CIS)
Launch site: TYURATAM MISSILE AND SPACE COMPLEX (TTMTR)
SV:
Your satellite tracking list
Your tracking list is empty





NASA's NSSDC Master Catalog

Two Line Element Set (TLE):
1 28916U 05050B   16345.38774755 -.00000037  00000-0  00000+0 0  9991
2 28916  65.4217  72.3090 0013662 328.8629  25.2097  2.13104482 85306
Source of the keplerian elements: AFSPC